Regional Weather Roundup
Issued by NWS

Home | Current Version | Previous Version | Graphics & Text | Print | Product List | Glossary On
Versions: 1 2 3 4 5 6 7 8 9 10 11 12 13 14 15 16 17 18 19 20 21 22 23 24 25 26 27 28 29 30 31 32 33 34 35 36 37 38 39 40 41 42 43 44 45 46 47 48 49 50
000
ASUS43 KIND 231759
RWRIN

WEATHER ROUNDUP FOR INDIANA
NATIONAL WEATHER SERVICE INDIANAPOLIS IN
200 PM EDT THU OCT 23 2014

NOTE: "FAIR" INDICATES FEW OR NO CLOUDS BELOW 12,000 FEET WITH NO
SIGNIFICANT WEATHER AND/OR OBSTRUCTIONS TO VISIBILITY.

* - STATION DOES NOT REPORT WEATHER SUCH AS PRECIPITATION OR FOG.

+ - STATION NOT QUALITY CONTROLLED BY THE NATIONAL WEATHER SERVICE.
    USE DATA WITH CAUTION...ESPECIALLY DEWPOINT AND RELATIVE
    HUMIDITY OBSERVATIONS.

INZ001>003-010>013-019-020-231900-
NORTHWEST INDIANA

CITY           SKY/WX    TMP DP  RH WIND       PRES   REMARKS
GARY /AIRPORT/ MOSUNNY   59  41  51 SW5G17    30.19F
VALPARAISO     NOT AVBL

$$

LMZ046-743>745-231900-
SOUTHERN LAKE MICHIGAN

STATION/POSITION TIME  TEMP WIND        PRES
                       AIR  DIR/SP/G
                 (UTC) (F)  (DEG/KT/KT) (MB)
MICHIGAN CITY    1700   53  180/  6/  9   N/A

$$

INZ004-005-014>016-021>024-231900-
NORTH CENTRAL INDIANA

CITY           SKY/WX    TMP DP  RH WIND       PRES   REMARKS
ELKHART        SUNNY     55  41  58 S3        30.19F
GOSHEN         SUNNY     55  41  59 S3        30.19F
6HR MIN TEMP:  30; 6HR MAX TEMP:  56;

SOUTH BEND     SUNNY     57  41  55 SW8       30.20F
6HR MIN TEMP:  33; 6HR MAX TEMP:  57;


$$

INZ006>009-017-018-025>027-231900-
NORTHEAST INDIANA

CITY           SKY/WX    TMP DP  RH WIND       PRES   REMARKS
ANGOLA *+      SUNNY     55  39  54 VRB5      30.19F
FORT WAYNE     MOSUNNY   55  40  56 VRB3      30.21F
6HR MIN TEMP:  30; 6HR MAX TEMP:  56;


$$

INZ028-029-035-036-043>045-051>053-231900-
WEST CENTRAL INDIANA

CITY           SKY/WX    TMP DP  RH WIND       PRES   REMARKS
GREENCASTLE +  MOSUNNY   54  41  62 S5        30.20F
LAFAYETTE      MOSUNNY   56  41  57 SW6       30.20F
6HR MIN TEMP:  34; 6HR MAX TEMP:  57;

TERRE HAUTE    PTSUNNY   56  43  61 SW6       30.21F
6HR MIN TEMP:  35; 6HR MAX TEMP:  56;


$$

INZ030>032-037>040-046>048-054>057-064-065-231900-
CENTRAL INDIANA

CITY           SKY/WX    TMP DP  RH WIND       PRES   REMARKS
COLUMBUS       SUNNY     55  43  62 S5        30.21F
INDIANAPOLIS   MOSUNNY   56  40  55 CALM      30.19F
6HR MIN TEMP:  37; 6HR MAX TEMP:  57;

-EAGLE CREEK   SUNNY     57  39  51 CALM      30.19F
6HR MIN TEMP:  34; 6HR MAX TEMP:  57;

KOKOMO *+      SUNNY     57  39  51 SW6       30.20F
MT COMFORT *+  SUNNY     57  32  38 W3        30.21F
SHELBYVILLE    SUNNY     59  40  49 VRB3      30.20F
6HR MIN TEMP:  32; 6HR MAX TEMP:  59;


$$

INZ033-034-041-042-049-050-058-059-231900-
EAST CENTRAL INDIANA

CITY           SKY/WX    TMP DP  RH WIND       PRES   REMARKS
MUNCIE         MOSUNNY   55  40  56 CALM      30.19F
6HR MIN TEMP:  31; 6HR MAX TEMP:  56;


$$

INZ060-061-067>069-081>083-085>088-231900-
SOUTHWEST INDIANA

CITY           SKY/WX    TMP DP  RH WIND       PRES   REMARKS
EVANSVILLE     MOSUNNY   59  43  55 VRB5      30.21F
6HR MIN TEMP:  38; 6HR MAX TEMP:  59;

HUNTINGBURG *+ SUNNY     57  43  58 E5        30.21F
6HR MIN TEMP:  36; 6HR MAX TEMP:  57;


$$

INZ062-063-066-070>080-084-089>092-231900-
SOUTH CENTRAL AND SOUTHEAST INDIANA

CITY           SKY/WX    TMP DP  RH WIND       PRES   REMARKS
BLOOMINGTON    SUNNY     58  40  51 W3        30.20F
6HR MIN TEMP:  32; 6HR MAX TEMP:  58;


$$




USA.gov is the U.S. government's official web portal to all federal, state and local government web resources and services.